エンケ彗星

2P/Encke (2023)

English version
Home page
Updated on May 17, 2021

---------------------------------------------------------------------

・ プロフィール

・ 写真集

・ 軌道要素

Epoch 2023 Oct. 23.0 TT = JDT 2460240.5                                         
T 2023 Oct. 22.53046 TT                                 Rudenko                 
q   0.3395969            (2000.0)            P               Q                  
n   0.29824208     Peri.  187.28770     -0.94616675     -0.31201470             
a   2.2186567      Node   334.01957     +0.30600656     -0.77556251             
e   0.8469358      Incl.   11.33672     +0.10549157     -0.54877101             
P   3.30                                                                        
From 2606 observations 2013 July 13-2020 July 14, mean residual 0".8.           
     Nongravitational parameters A1 = -0.02, A2 = +0.0003.                      

・ 星図

・ 光度変化

        H = 14.2  G = 0.15                [    ,-110]  (              〜2023年 7月 4日)
        m1 =  9.8 + 5 logΔ + 25   log r  [-110, -45]  (2023年 7月 4日〜2023年 9月 7日)
        m1 = 10.3 + 5 logΔ +  7   log r  [ -45,  20]  (2023年 9月 7日〜2023年11月11日)
        m1 = 12.3 + 5 logΔ + 15.7 log r  [  20,  85]  (2023年11月11日〜2024年 1月15日)
        H = 14.2  G = 0.15                [  85,    ]  (2024年 1月15日〜              )

---------------------------------------------------------------------

軌道要素はM.P.E.C. 2020-O07に掲載されたものです。
星図はステラナビゲータ Ver.10 (アストロアーツ) で作成したものです。
光度グラフはComet for Windowsで作成したものです。

---------------------------------------------------------------------

Copyright(C) Seiichi Yoshida (comet@aerith.net). All rights reserved.